Weather History for Thermopolis, WY

Change the Weather History Date:

Tuesday, October 15, 2013

  Actual Average (KWRL) Record (KWRL)
Temperature  
Mean Temperature 24 °F 46 °F  
Max Temperature 26 °F 61 °F 80 °F (2014)
Min Temperature 23 °F 31 °F 19 °F (1970)
Degree Days  
Heating Degree Days 40 19  
Month to date heating degree days 246  
Since 1 July heating degree days 503  
Cooling Degree Days 0 0  
Month to date cooling degree days 0  
Year to date cooling degree days 535  
Moisture  
Dew Point 23 °F    
Average Humidity 89    
Maximum Humidity 100    
Minimum Humidity 80    
Precipitation  
Precipitation 0.00 in 0.03 in 0.38 in (1980)
Month to date precipitation 0.43  
Year to date precipitation 6.73  
Sea Level Pressure  
Sea Level Pressure 30.32 in    
Wind  
Wind Speed 23 mph (WNW)    
Max Wind Speed 38 mph    
Max Gust Speed 41 mph    
T = Trace of Precipitation, MM = Missing Value Source: NWS Daily Summary

Daily Weather History Graph

Daily Weather History Graph

Search for Another Location

Airport:

Trip Planner

Search our weather history database for the weather conditions in past years. The results will help you decide how hot, cold, wet, or windy it might be!

Date:

Astronomy

Oct. 15, 2013 Rise Set
Actual Time 7:27 AM MDT 6:29 PM MDT
Civil Twilight 6:58 AM MDT 6:58 PM MDT
Nautical Twilight 6:25 AM MDT 7:31 PM MDT
Astronomical Twilight 5:52 AM MDT 8:04 PM MDT
Moon 4:40 PM MDT (10/15) 3:47 AM MDT (10/15)
Length of Visible Light 11h 59m
Length of Day
11h 01m
Waxing Gibbous, 88% of the Moon is Illuminated
Oct 15
Waxing Gibbous
Oct 18
Full
Oct 26
Last Quarter
Nov 3
New
Nov 9
First Quarter

Hourly Weather History & Observations

Time (MDT) Temp. Windchill Dew Point Humidity Pressure Visibility Wind Dir Wind Speed Gust Speed Precip Events Conditions
12:15 AM 26.6 °F 8.7 °F 23.0 °F 86% 30.36 in - NW 38.0 mph - N/A   Overcast
12:35 AM 24.8 °F 7.3 °F 23.0 °F 93% 30.36 in - NW 32.2 mph - N/A   Overcast
12:55 AM 26.6 °F 10.3 °F 24.8 °F 93% 30.36 in - NW 29.9 mph - N/A   Overcast
1:15 AM 26.6 °F 9.6 °F 24.8 °F 93% 30.35 in - NW 33.4 mph - N/A   Overcast
1:35 AM 26.6 °F 8.7 °F 24.8 °F 93% 30.34 in - WNW 38.0 mph - N/A   Overcast
1:55 AM 26.6 °F 9.1 °F 24.8 °F 93% 30.34 in - WNW 35.7 mph - N/A   Overcast
2:15 AM 26.6 °F 9.1 °F 24.8 °F 93% 30.35 in - WNW 35.7 mph 41.4 mph N/A   Overcast
2:35 AM 26.6 °F 9.1 °F 24.8 °F 93% 30.35 in - WNW 35.7 mph - N/A   Overcast
2:55 AM 26.6 °F 9.3 °F 24.8 °F 93% 30.35 in - WNW 34.5 mph - N/A   Overcast
3:15 AM 24.8 °F 6.8 °F 23.0 °F 93% 30.35 in - WNW 34.5 mph - N/A   Overcast
3:35 AM 24.8 °F 7.1 °F 23.0 °F 93% 30.35 in - WNW 33.4 mph - N/A   Overcast
3:55 AM 24.8 °F 7.6 °F 23.0 °F 93% 30.34 in - WNW 31.1 mph - N/A   Overcast
4:15 AM 26.6 °F 9.8 °F 24.8 °F 93% 30.34 in - WNW 32.2 mph - N/A   Overcast
4:35 AM 26.6 °F 9.6 °F 24.8 °F 93% 30.33 in - WNW 33.4 mph - N/A   Overcast
4:55 AM 24.8 °F 7.6 °F 23.0 °F 93% 30.34 in - WNW 31.1 mph - N/A   Overcast
5:15 AM 24.8 °F 7.6 °F 23.0 °F 93% 30.34 in - WNW 31.1 mph - N/A   Unknown
5:35 AM 24.8 °F 7.3 °F 23.0 °F 93% 30.33 in - WNW 32.2 mph - N/A   Overcast
5:55 AM 24.8 °F 7.6 °F 23.0 °F 93% 30.34 in - WNW 31.1 mph - N/A   Overcast
6:15 AM 23.0 °F 4.9 °F 23.0 °F 100% 30.34 in - WNW 32.2 mph - N/A   Overcast
6:35 AM 23.0 °F 5.7 °F 23.0 °F 100% 30.34 in - WNW 28.8 mph - N/A   Overcast
6:55 AM - - - N/A% 30.34 in - WNW 28.8 mph - N/A   Overcast
7:15 AM - - - N/A% 30.34 in - NW 26.5 mph - N/A   Overcast
7:35 AM - - - N/A% 30.35 in - NW 24.2 mph - N/A   Overcast
7:55 AM - - - N/A% 30.35 in - NW 21.9 mph - N/A   Unknown
8:15 AM - - - N/A% 30.36 in - NW 18.4 mph - N/A   Unknown
8:35 AM - - - N/A% 30.37 in - North - - N/A   Unknown
8:55 AM - - - N/A% 30.38 in - NW 16.1 mph - N/A   Unknown
9:15 AM - - - N/A% 30.38 in - NW 13.8 mph - N/A   Unknown
9:35 AM - - - N/A% 30.38 in - NW 11.5 mph - N/A   Overcast
9:55 AM - - - N/A% 30.38 in - NW 10.4 mph - N/A   Unknown
10:15 AM - - - N/A% 30.38 in - WNW 10.4 mph - N/A   Unknown
10:35 AM - - - N/A% 30.38 in - NW 9.2 mph - N/A   Overcast
10:55 AM 23.0 °F 12.4 °F 23.0 °F 100% 30.38 in - NW 10.4 mph - N/A   Unknown
11:15 AM 24.8 °F 15.3 °F 23.0 °F 93% 30.38 in - NW 9.2 mph - N/A   Unknown
11:35 AM 24.8 °F 17.9 °F 23.0 °F 93% 30.38 in - NW 5.8 mph - N/A   Unknown
11:55 AM - - - N/A% 30.38 in - WNW 6.9 mph - N/A   Unknown
12:15 PM - - - N/A% 30.37 in - WNW 6.9 mph - N/A   Unknown
12:35 PM - - - N/A% 30.36 in - North - - N/A   Unknown
12:55 PM - - - N/A% 30.36 in - WNW 9.2 mph - N/A   Unknown
1:15 PM - - - N/A% 30.35 in - North - - N/A   Unknown
1:35 PM - - - N/A% 30.34 in - North - - N/A   Unknown
1:55 PM - - - N/A% 30.33 in - WNW 8.1 mph - N/A   Unknown
2:15 PM - - - N/A% 30.33 in - WNW 6.9 mph - N/A   Unknown
2:35 PM - - - N/A% 30.32 in - West 5.8 mph - N/A   Mostly Cloudy
2:55 PM - - - N/A% 30.31 in - West 4.6 mph - N/A   Unknown
3:15 PM 26.6 °F 19.1 °F 24.8 °F 93% 30.31 in - WNW 6.9 mph - N/A   Unknown
3:35 PM 26.6 °F 19.1 °F 24.8 °F 93% 30.30 in - WNW 6.9 mph - N/A   Unknown
3:55 PM 26.6 °F 19.1 °F 24.8 °F 93% 30.30 in - WNW 6.9 mph - N/A   Unknown
4:15 PM 26.6 °F 19.1 °F 24.8 °F 93% 30.30 in - NW 6.9 mph - N/A   Unknown
4:35 PM 26.6 °F 21.2 °F 24.8 °F 93% 30.30 in - WNW 4.6 mph - N/A   Unknown
4:55 PM 26.6 °F 22.6 °F 24.8 °F 93% 30.29 in - NW 3.5 mph - N/A   Unknown
5:15 PM 26.6 °F - 23.0 °F 86% 30.29 in - Calm Calm - N/A   Unknown
5:35 PM 26.6 °F - 23.0 °F 86% 30.28 in - Calm Calm - N/A   Unknown
5:55 PM 26.6 °F 22.6 °F 23.0 °F 86% 30.28 in - SSW 3.5 mph - N/A   Unknown
6:15 PM 26.6 °F 19.1 °F 23.0 °F 86% 30.28 in - SSE 6.9 mph - N/A   Unknown
6:35 PM 26.6 °F 19.1 °F 23.0 °F 86% 30.28 in - SSE 6.9 mph - N/A   Unknown
6:55 PM 26.6 °F 21.2 °F 23.0 °F 86% 30.28 in - SSE 4.6 mph - N/A   Unknown
7:15 PM 26.6 °F 21.2 °F 23.0 °F 86% 30.28 in - SSE 4.6 mph - N/A   Unknown
7:35 PM 26.6 °F 19.1 °F 23.0 °F 86% 30.28 in - SSE 6.9 mph - N/A   Unknown
7:55 PM 26.6 °F 20.0 °F 23.0 °F 86% 30.27 in - SE 5.8 mph - N/A   Unknown
8:15 PM 26.6 °F 21.2 °F 23.0 °F 86% 30.27 in - SSE 4.6 mph - N/A   Unknown
8:35 PM 26.6 °F 19.1 °F 23.0 °F 86% 30.27 in - SE 6.9 mph - N/A   Unknown
8:55 PM 26.6 °F 20.0 °F 21.2 °F 80% 30.26 in - SE 5.8 mph - N/A   Unknown
9:15 PM 26.6 °F 20.0 °F 21.2 °F 80% 30.26 in - SE 5.8 mph - N/A   Unknown
9:35 PM 26.6 °F 18.2 °F 21.2 °F 80% 30.26 in - SSE 8.1 mph - N/A   Unknown
9:55 PM 26.6 °F 21.2 °F 21.2 °F 80% 30.26 in - SSE 4.6 mph - N/A   Unknown
10:15 PM 26.6 °F 22.6 °F 23.0 °F 86% 30.25 in - SSE 3.5 mph - N/A   Unknown
10:35 PM 26.6 °F 18.2 °F 21.2 °F 80% 30.25 in - SSE 8.1 mph - N/A   Unknown
10:55 PM 26.6 °F 16.2 °F 21.2 °F 80% 30.24 in - South 11.5 mph - N/A   Unknown
11:15 PM 26.6 °F 16.2 °F 23.0 °F 86% 30.25 in - South 11.5 mph - N/A   Unknown
11:35 PM 26.6 °F 15.7 °F 21.2 °F 80% 30.24 in - South 12.7 mph - N/A   Unknown
11:55 PM 26.6 °F 16.8 °F 21.2 °F 80% 30.24 in - South 10.4 mph - N/A   Unknown